This is the latest recevied weather packets stored in our database for station/object W2OBX. If no packets are shown the sender has not sent any weather packets the latest 10 day(s).
| Time | Temp. | Humidity | Pressure | Rain* | Wind** | Luminosity | Snow |
|---|---|---|---|---|---|---|---|
| 1777862519 | 9.44° C | 70% | 1017.4 hPa | 0 mm | - | 0 W/m² | - |
| 1777862216 | 9.44° C | 69% | 1017.5 hPa | 0 mm | - | 0 W/m² | - |
| 1777861912 | 10° C | 69% | 1017.4 hPa | 0 mm | - | 0 W/m² | - |
| 1777861609 | 10° C | 69% | 1017.2 hPa | 0 mm | - | 0 W/m² | - |
| 1777861304 | 10° C | 69% | 1017 hPa | 0 mm | - | 0 W/m² | - |
| 1777861003 | 10° C | 68% | 1017.4 hPa | 0 mm | - | 0 W/m² | - |
| 1777860699 | 10° C | 68% | 1017.3 hPa | 0 mm | - | 0 W/m² | - |
| 1777860396 | 10° C | 67% | 1017.4 hPa | 0 mm | - | 0 W/m² | - |
| 1777860092 | 10.56° C | 67% | 1017.2 hPa | 0 mm | - | 0 W/m² | - |
| 1777859789 | 10.56° C | 69% | 1017.3 hPa | 0 mm | - | 0 W/m² | - |
| 1777859485 | 11.11° C | 68% | 1017.1 hPa | 0 mm | - | 0 W/m² | - |
| 1777859181 | 11.11° C | 67% | 1017.2 hPa | 0 mm | - | 0 W/m² | - |
| 1777858879 | 11.67° C | 66% | 1017.3 hPa | 0 mm | - | 0 W/m² | - |
| 1777858576 | 11.67° C | 66% | 1017.1 hPa | 0 mm | - | 0 W/m² | - |
| 1777858273 | 11.67° C | 63% | 1017.3 hPa | 0 mm | - | 0 W/m² | - |
| 1777857970 | 11.67° C | 65% | 1017.2 hPa | 0 mm | - | 0 W/m² | - |
| 1777857668 | 12.22° C | 59% | 1017.2 hPa | 0 mm | - | 0 W/m² | - |
| 1777857365 | 12.22° C | 57% | 1017.2 hPa | 0 mm | - | 0 W/m² | - |
| 1777857061 | 12.78° C | 58% | 1017.2 hPa | 0 mm | - | 0 W/m² | - |
| 1777856756 | 12.78° C | 57% | 1017.2 hPa | 0 mm | - | 0 W/m² | - |
| 1777856453 | 12.78° C | 54% | 1017.1 hPa | 0 mm | - | 0 W/m² | - |
| 1777856150 | 12.78° C | 53% | 1017.2 hPa | 0 mm | - | 0 W/m² | - |
| 1777855847 | 13.33° C | 52% | 1017.2 hPa | 0 mm | - | 0 W/m² | - |
| 1777855545 | 13.89° C | 51% | 1017 hPa | 0 mm | - | 0 W/m² | - |
| 1777855242 | 13.89° C | 51% | 1016.8 hPa | 0 mm | - | 0 W/m² | - |
* Rain latest hour (hover to see other rain measurements)
** Current wind speed in m/s (hover to see current wind gust speed)